Weather History for Paducah, KY

Change the Weather History Date:

Sunday, March 13, 2011

  Actual Average Record
Temperature  
Mean Temperature 50 °F 47 °F  
Max Temperature 60 °F 58 °F 85 °F (1967)
Min Temperature 40 °F 37 °F 15 °F (1948)
Degree Days  
Heating Degree Days 15 18  
Month to date heating degree days 241 255  
Since 1 July heating degree days 3695 3551  
Cooling Degree Days 0 0  
Month to date cooling degree days 0 0  
Year to date cooling degree days 0 0  
Moisture  
Dew Point 34 °F    
Average Humidity 58    
Maximum Humidity 86    
Minimum Humidity 29    
Precipitation  
Precipitation 0.40 in 0.12 in 1.23 in (1978)
Month to date precipitation 4.38 1.55  
Year to date precipitation 11.31 9.14  
Snow  
Snow 0.00 in 0.00 in 2.00 in (1958)
Month to date snowfall 0.0 0.4  
Since 1 July snowfall 18.9 8.9  
Snow Depth 0.00 in    
Sea Level Pressure  
Sea Level Pressure 30.23 in    
Wind  
Wind Speed 10 mph (NE)    
Max Wind Speed 20 mph    
Max Gust Speed 24 mph    
Visibility 9 miles    
Events Rain    
T = Trace of Precipitation, MM = Missing Value Source: NWS Daily Summary

Daily Weather History Graph

Daily Weather History Graph

Search for Another Location

Airport:

Trip Planner

Search our weather history database for the weather conditions in past years. The results will help you decide how hot, cold, wet, or windy it might be!

Date:

Astronomy

Mar. 13, 2011 Rise Set
Actual Time 7:09 AM CDT 7:00 PM CDT
Civil Twilight 6:43 AM CDT 7:26 PM CDT
Nautical Twilight 6:13 AM CDT 7:56 PM CDT
Astronomical Twilight 5:43 AM CDT 8:26 PM CDT
Moon 12:23 PM CDT (3/13) 3:32 AM CDT (3/13)
Length of Visible Light 12h 42m
Length of Day
11h 50m
First Quarter, 58% of the Moon is Illuminated
Mar 13
First Quarter
Mar 19
Full
Mar 26
Last Quarter
Apr 3
New
Apr 11
First Quarter

Hourly Weather History & Observations

Time (CDT) Temp. Windchill Dew Point Humidity Pressure Visibility Wind Dir Wind Speed Gust Speed Precip Events Conditions
12:53 AM 48.9 °F - 36.0 °F 61% 30.13 in 10.0 mi NNE 6.9 mph - N/A   Scattered Clouds
1:53 AM 50.0 °F - 37.0 °F 61% 30.13 in 10.0 mi NNE 8.1 mph - N/A   Overcast
3:53 AM 48.9 °F - 36.0 °F 61% 30.14 in 10.0 mi NE 6.9 mph - N/A   Overcast
4:53 AM 45.0 °F 41.2 °F 35.1 °F 68% 30.15 in 10.0 mi NE 6.9 mph - N/A   Scattered Clouds
5:53 AM 45.0 °F 40.6 °F 34.0 °F 65% 30.18 in 10.0 mi NNE 8.1 mph - N/A   Clear
6:53 AM 42.8 °F 38.0 °F 33.8 °F 70% 30.21 in 10.0 mi NNE 8.1 mph - N/A   Partly Cloudy
7:53 AM 44.1 °F 39.0 °F 35.1 °F 71% 30.24 in 10.0 mi NE 9.2 mph - N/A   Clear
8:53 AM 45.0 °F 39.7 °F 34.0 °F 65% 30.27 in 10.0 mi NE 10.4 mph - N/A   Mostly Cloudy
9:53 AM 46.9 °F - 33.1 °F 59% 30.28 in 10.0 mi NNE 12.7 mph - N/A   Overcast
10:53 AM 48.9 °F - 33.1 °F 54% 30.28 in 10.0 mi NE 6.9 mph - N/A   Overcast
11:53 AM 52.0 °F - 33.1 °F 49% 30.27 in 10.0 mi NE 8.1 mph - N/A   Mostly Cloudy
12:53 PM 55.9 °F - 35.1 °F 45% 30.26 in 10.0 mi NE 6.9 mph - N/A   Partly Cloudy
1:53 PM 57.9 °F - 34.0 °F 41% 30.23 in 10.0 mi NE 10.4 mph - N/A   Clear
2:53 PM 57.9 °F - 30.0 °F 35% 30.22 in 10.0 mi NNE 10.4 mph - N/A   Clear
3:53 PM 60.1 °F - 28.9 °F 31% 30.22 in 10.0 mi NE 12.7 mph - N/A   Mostly Cloudy
4:53 PM 57.9 °F - 28.0 °F 32% 30.22 in 10.0 mi ENE 9.2 mph - N/A   Overcast
5:53 PM 55.0 °F - 30.0 °F 38% 30.23 in 10.0 mi ENE 11.5 mph - N/A   Overcast
6:53 PM 52.0 °F - 30.9 °F 45% 30.23 in 10.0 mi ENE 11.5 mph - N/A   Mostly Cloudy
7:53 PM 50.0 °F - 34.0 °F 54% 30.24 in 10.0 mi ENE 17.3 mph - N/A   Overcast
8:53 PM 48.0 °F - 33.1 °F 56% 30.24 in 10.0 mi NE 11.5 mph 20.7 mph N/A   Overcast
9:53 PM 45.0 °F 39.3 °F 37.0 °F 74% 30.29 in 7.0 mi North 11.5 mph 21.9 mph 0.04 in Rain Light Rain
10:53 PM 42.1 °F 34.9 °F 37.0 °F 82% 30.31 in 4.0 mi NNE 13.8 mph - 0.09 in Rain Rain
11:53 PM 41.0 °F 33.9 °F 37.0 °F 86% 30.25 in 5.0 mi NE 12.7 mph 20.7 mph 0.19 in Rain Rain
12:53 AM 39.9 °F 33.4 °F 37.0 °F 89% 30.28 in 4.0 mi NNE 10.4 mph - 0.07 in Rain Light Rain